GFSFLT1_850_temp_264.txt.gz
Temp
11 12 12 12 13 14 14 15 15 15 15 15 16 15 15 15 16 16 15 15 16 16 16 15 16 16 16 16 16 16 16 16
11 11 12 12 12 13 13 14 15 15 16 16 16 16 15 14 14 14 14 15 15 14 15 15 15 15 15 15 16 16 16 15
11 11 11 12 12 12 12 13 13 14 14 14 14 13 13 12 12 12 13 14 14 13 14 14 14 15 14 15 15 14 15 15
11 11 11 11 11 11 12 12 12 13 13 13 13 13 13 13 13 12 12 11 12 12 13 13 12 13 13 14 14 14 14 14
10 10 10 10 10 10 10 11 11 11 11 12 11 11 11 11 11 11 11 11 11 11 11 11 11 12 12 12 12 13 13 13
10 10 9 9 8 9 9 9 9 9 10 10 10 10 9 9 10 10 10 10 10 10 10 10 10 9 10 11 12 11 11 10
10 9 9 9 8 8 8 8 8 8 8 8 8 8 8 9 10 10 10 9 9 9 9 9 8 8 8 8 9 8 9 11
10 10 9 9 8 8 7 7 7 6 7 7 6 6 7 7 7 7 8 8 8 8 7 8 7 7 7 6 7 9 9 9
10 10 9 8 8 7 7 6 6 6 6 6 6 6 6 6 6 6 5 6 6 6 6 6 6 6 6 6 5 5 6 7
10 9 9 8 8 7 7 6 6 5 4 4 4 4 4 5 5 5 5 5 5 6 6 6 6 6 6 6 5 4 4 2
10 9 8 8 8 7 7 6 5 5 4 4 3 3 3 4 4 4 4 4 4 5 5 5 5 5 5 5 5 4 3 1
10 9 8 8 8 8 7 6 5 5 4 4 3 3 3 3 4 3 3 4 4 4 4 4 4 4 4 3 2 1 -0 -1
10 9 8 8 8 8 7 6 5 5 4 3 3 3 3 4 4 4 4 4 4 3 3 3 2 2 2 1 -1 -2 -2 -2
9 8 8 8 8 7 6 5 5 4 3 3 3 3 3 4 4 4 4 4 3 3 3 2 2 1 -0 -2 -3 -2 -3 -3
9 9 8 7 7 7 6 5 5 4 3 3 3 3 3 3 3 3 3 3 3 3 2 1 0 -1 -3 -4 -4 -4 -4 -4
9 8 7 7 7 6 6 5 4 3 3 2 2 2 3 3 3 3 3 3 3 2 1 0 -1 -3 -4 -4 -4 -4 -4 -4
8 8 7 7 7 6 5 4 4 3 2 2 2 2 2 2 2 2 2 2 2 1 0 -1 -2 -3 -4 -4 -5 -4 -4 -4
8 8 7 7 6 5 5 4 3 2 2 2 2 1 1 1 1 1 2 2 1 0 -0 -1 -2 -4 -5 -5 -6 -5 -5 -5
8 8 7 6 6 5 4 3 2 2 2 1 1 1 1 1 1 1 1 0 0 -1 -2 -3 -3 -5 -5 -5 -4 -5 -5 -4

GFSFLT1_850_temp_270.txt.gz
Temp
11 12 12 12 13 13 13 13 13 13 13 13 13 13 13 13 13 13 13 13 13 13 14 14 14 14 14 14 14 14 13 13
10 11 12 12 12 12 12 12 12 12 12 13 13 13 12 13 12 12 13 13 13 13 13 13 13 13 13 13 13 14 13 13
10 11 11 12 12 12 12 12 12 12 12 12 12 11 11 10 11 11 11 11 12 12 12 12 12 12 12 12 12 13 13 12
10 11 11 11 11 11 11 11 11 11 11 11 10 10 10 10 11 11 11 11 11 11 11 10 11 11 11 11 11 11 11 11
10 10 10 10 10 10 10 10 10 10 10 10 11 11 11 10 9 9 9 10 10 10 9 10 10 10 10 9 9 9 9 9
9 9 9 9 9 9 9 10 10 9 9 9 10 10 9 9 9 9 9 9 9 9 9 9 9 9 8 8 8 8 7 7
9 9 9 8 8 8 8 8 8 8 8 8 9 9 8 9 9 9 9 8 8 8 8 8 8 8 8 8 8 7 7 6
9 9 8 8 8 7 7 7 7 7 8 8 8 8 8 8 8 8 8 8 8 8 7 7 7 7 7 7 7 7 6 6
9 9 9 8 8 8 7 7 7 7 7 7 6 6 7 7 7 6 7 7 7 7 7 7 6 6 6 6 5 5 4 2
9 8 8 8 8 7 7 7 7 6 6 6 6 6 6 6 6 6 6 6 6 6 6 6 6 5 5 5 4 4 3 2
8 8 8 8 7 7 7 6 6 6 6 5 5 6 6 5 5 5 5 5 6 6 6 6 5 4 4 4 3 2 2 2
8 8 8 8 7 7 6 6 6 6 5 5 5 5 4 4 4 5 5 6 6 5 5 4 4 3 3 3 2 2 2 2
9 9 8 8 7 7 6 6 6 5 5 4 4 4 4 4 5 5 5 5 5 5 4 4 4 3 4 2 2 2 1 1
9 8 8 8 7 7 6 6 5 5 4 4 4 4 4 4 4 4 4 4 4 4 4 4 3 3 1 1 1 1 1 1
9 8 8 8 7 7 6 5 5 4 4 4 4 4 4 4 4 4 4 4 4 3 3 3 2 1 0 0 0 0 1 0
8 8 8 7 6 6 5 5 5 4 4 4 4 4 4 3 3 3 3 3 3 3 2 2 1 0 -1 -1 -0 0 0 -0
9 9 8 7 7 6 6 5 4 4 4 4 4 4 4 3 3 3 3 3 3 2 2 1 0 -0 -0 -0 -1 -0 -1 -1
9 9 8 7 7 6 5 5 4 4 4 4 3 3 3 3 3 3 3 3 2 2 1 1 -0 -0 -1 -0 -0 -1 -1 -1
9 9 8 8 7 6 5 5 4 4 4 3 3 3 3 3 3 3 2 2 2 2 1 0 -0 -0 -1 -0 -1 -1 -1 -1

GFSFLT1_850_temp_273.txt.gz
Temp
11 12 12 13 13 13 13 13 13 13 13 13 13 13 13 13 13 13 13 13 13 13 13 13 13 13 13 13 13 13 12 13
10 11 12 12 12 12 12 12 12 12 12 12 12 13 12 12 12 12 12 12 12 13 13 13 13 13 13 13 13 13 13 13
10 11 12 12 12 12 12 11 11 11 11 12 12 12 12 12 11 11 12 12 12 12 12 12 12 12 12 12 12 12 12 12
9 10 11 11 12 12 12 11 11 11 11 12 12 12 11 11 11 11 11 11 11 11 11 11 11 11 11 11 11 11 11 9
9 10 10 10 11 11 11 11 11 11 11 11 11 11 11 10 10 10 10 10 10 10 10 10 10 10 10 9 9 9 9 9
9 9 9 9 9 9 9 10 10 9 9 10 10 10 10 9 8 8 9 9 9 10 10 10 10 10 9 9 9 8 7 6
8 8 9 9 8 9 8 9 8 8 8 9 9 9 8 8 8 9 9 9 9 9 8 9 9 9 8 8 8 7 7 6
8 8 8 8 8 8 7 7 7 7 8 8 8 8 8 8 8 8 8 8 8 8 7 8 8 8 7 7 6 6 6 5
7 8 8 8 7 7 7 7 8 7 7 7 7 7 8 8 8 7 7 7 7 7 7 7 7 7 6 6 5 5 5 4
7 7 8 7 7 7 7 7 7 6 7 7 7 7 7 7 7 7 7 7 7 6 6 6 6 6 5 5 5 4 4 3
7 8 8 7 7 7 6 6 6 5 6 6 6 6 6 6 6 6 6 6 6 6 5 5 5 4 4 4 4 3 3 3
7 8 8 7 7 7 6 5 6 5 5 5 5 5 5 6 6 6 6 5 5 5 4 5 5 4 4 4 3 3 3 2
8 8 7 7 6 6 6 5 5 5 4 4 5 5 5 6 6 5 5 5 5 4 5 5 4 3 3 3 2 2 2 2
7 7 7 6 6 6 5 5 5 5 4 4 5 5 5 5 5 5 4 4 4 4 4 4 3 3 2 2 2 2 1 1
7 7 7 7 6 6 5 5 4 4 4 4 4 4 4 4 4 4 4 4 4 4 3 3 2 2 2 2 1 1 1 0
7 7 7 7 6 5 5 5 4 4 4 4 4 4 4 4 4 4 3 3 3 3 2 2 2 1 1 1 1 0 -0 -0
7 7 8 7 7 6 6 5 5 4 4 4 4 3 3 3 3 3 3 3 2 2 2 1 1 1 1 1 1 0 -0 -1
7 8 8 8 8 7 6 5 4 4 4 3 3 3 3 3 3 3 3 2 2 2 1 1 1 1 1 1 1 1 0 -1
7 9 9 8 8 7 6 5 4 4 3 3 3 3 3 3 3 3 2 2 2 1 1 1 0 0 1 1 1 1 0 -0

GFSFLT1_850_temp_276.txt.gz
Temp
10 10 11 11 13 14 14 14 14 14 14 14 13 13 13 13 13 13 14 13 14 13 14 13 13 13 13 13 13 13 11 14
10 12 12 12 12 13 13 13 13 13 12 13 13 13 12 12 12 13 13 13 13 13 13 13 13 13 13 13 13 12 10 13
9 10 10 11 11 11 12 12 12 12 12 12 12 12 12 12 12 12 12 13 12 13 12 12 12 12 12 12 12 12 8 8
9 9 9 11 11 11 10 11 11 11 11 11 12 12 11 11 11 11 11 11 12 12 12 12 12 12 11 11 11 11 8 7
10 9 9 8 11 11 11 11 11 11 11 11 10 8 9 10 10 10 11 11 11 11 10 10 10 10 10 9 9 8 8 5
9 9 8 8 11 11 11 11 11 11 11 11 10 10 10 10 10 10 10 10 10 10 10 10 9 9 9 9 8 8 4 4
9 8 7 7 9 10 10 10 10 10 10 10 10 10 10 9 9 9 8 9 9 9 9 9 9 9 8 8 7 7 7 5
9 8 8 6 7 8 9 8 9 9 9 9 9 9 9 8 7 7 6 7 8 8 8 8 8 8 7 7 6 5 5 4
9 8 8 6 5 5 6 6 8 8 8 8 8 8 7 7 7 7 7 8 8 8 8 7 7 7 7 6 5 6 5 5
9 8 7 6 6 5 5 5 6 6 7 7 7 7 7 7 7 7 8 7 7 7 7 6 6 6 6 6 5 5 5 4
9 9 7 7 6 5 5 4 5 6 6 6 6 6 6 7 7 7 7 7 6 6 6 6 5 5 5 5 3 4 4 3
10 9 7 7 6 5 4 4 4 5 5 6 6 6 6 6 6 6 6 6 6 6 5 5 4 4 4 3 3 3 3 2
10 9 8 7 6 5 5 4 4 4 5 6 6 6 6 6 6 6 6 5 5 5 4 4 4 3 3 3 3 2 1 -1
10 9 8 7 7 6 5 4 4 4 4 5 5 5 5 5 5 5 5 5 4 4 4 3 3 3 3 2 2 2 -0 -2
10 9 8 8 7 6 5 4 3 3 3 2 4 4 4 4 4 4 4 4 4 3 3 3 2 2 2 2 2 1 -0 -1
10 9 8 8 7 6 5 4 3 3 2 2 3 4 4 4 4 4 4 3 3 3 3 2 2 2 2 2 2 1 1 -0
10 9 8 7 6 6 5 4 3 2 2 2 4 4 4 4 3 3 3 3 3 2 2 2 1 1 2 2 2 0 -1 -1
10 10 9 8 6 6 5 3 3 2 2 2 3 3 3 3 3 3 3 3 2 2 2 1 1 1 1 2 1 1 -1 -3
10 10 9 8 6 5 4 3 3 2 1 2 3 3 3 3 3 2 2 2 1 1 1 1 1 1 1 1 1 1 -2 -2

GFSFLT1_850_temp_279.txt.gz
Temp
15 15 15 14 12 14 14 14 14 14 14 14 14 13 13 13 13 14 14 14 13 13 14 14 13 13 12 14 14 12 12 11
14 13 13 13 13 14 14 14 14 13 14 13 13 12 13 12 13 13 13 13 13 13 13 13 11 13 13 13 13 11 11 10
13 13 12 12 10 13 14 13 13 13 13 12 12 12 11 11 12 12 13 13 13 13 13 13 12 9 12 12 12 11 10 8
14 13 12 12 11 11 12 12 12 12 12 12 11 12 11 9 9 11 12 12 13 12 12 12 11 10 10 11 11 10 8 8
14 13 12 12 10 10 9 9 10 11 10 9 9 11 10 8 7 11 11 11 11 11 11 10 10 10 10 7 8 6 7 7
14 13 12 11 9 9 8 8 8 9 9 9 9 9 8 7 9 10 10 9 9 10 10 10 9 8 8 8 8 8 5 5
14 13 11 10 9 8 9 9 9 10 10 9 8 8 7 7 7 6 6 6 8 9 9 9 9 8 8 8 7 7 6 4
13 12 11 10 9 8 8 8 8 9 9 9 8 7 7 6 6 6 6 5 6 8 9 9 9 8 8 5 6 5 5 3
13 12 12 10 8 7 7 7 8 8 8 8 7 7 6 6 5 5 5 5 8 8 8 8 7 7 6 4 5 4 3 3
13 12 11 9 8 7 7 7 7 7 7 7 7 6 5 7 8 7 7 8 8 8 6 5 6 6 5 3 4 4 3 3
13 12 11 9 8 7 6 6 6 6 6 7 7 7 8 7 6 6 7 7 7 6 4 4 5 5 5 4 3 4 3 3
13 12 11 9 8 7 6 6 6 5 5 5 6 6 6 6 6 6 5 6 6 5 4 5 5 5 5 4 2 2 1 0
13 12 11 10 8 7 6 6 5 4 4 4 4 5 4 4 5 5 6 6 5 5 4 5 4 4 4 3 3 1 0 -0
13 13 11 10 9 7 7 6 5 5 4 4 4 3 3 4 5 6 6 5 5 4 4 4 4 4 4 3 2 0 -0 -1
14 13 11 10 9 8 7 6 6 5 4 4 3 3 3 3 4 4 4 4 4 4 3 3 3 4 4 3 1 -1 -1 -1
14 13 11 10 9 8 8 7 6 5 5 4 3 3 2 3 4 4 4 3 2 2 2 2 3 3 3 3 3 -1 -1 -1
14 13 11 10 9 8 8 7 6 5 5 4 3 2 2 3 3 3 4 3 2 1 1 0 1 2 2 2 2 1 -1 -1
14 13 12 10 9 8 7 6 5 5 4 4 2 2 2 2 2 3 2 1 1 1 1 0 1 2 2 2 2 0 -1 -2
14 13 12 10 9 8 7 6 5 4 4 3 2 2 1 1 1 1 1 1 0 1 1 -0 -1 1 1 1 1 -1 -2 -2

GFSFLT1_850_temp_282.txt.gz
Temp
17 17 17 16 16 15 15 15 15 14 15 14 14 14 14 14 14 14 14 14 14 13 14 13 14 14 14 14 14 14 11 13
16 17 16 15 15 15 13 14 14 14 14 13 13 13 13 14 13 13 13 13 13 13 14 13 13 14 14 14 14 12 10 13
16 15 14 14 15 14 13 14 14 13 13 13 13 12 11 12 13 12 13 13 13 14 14 13 12 13 12 12 13 11 8 10
15 14 14 12 14 13 14 13 14 13 13 13 13 11 10 11 11 12 12 13 13 13 13 12 13 12 11 11 11 10 7 7
15 14 13 13 12 12 12 13 13 13 12 11 12 11 10 9 10 11 12 12 12 12 12 12 11 11 11 10 9 8 8 7
15 14 13 12 11 10 11 11 12 11 11 10 10 10 10 9 10 10 10 11 11 11 11 11 10 10 8 7 8 8 8 7
15 14 13 12 10 10 10 9 9 9 9 10 10 10 9 9 8 8 8 10 10 10 10 9 8 7 6 8 8 8 8 7
15 14 13 11 10 9 9 9 9 9 9 9 9 9 9 8 8 7 7 7 9 9 8 7 8 8 8 8 8 8 7 7
15 14 13 11 10 9 9 9 9 9 10 10 9 9 8 7 7 6 6 8 8 7 7 7 8 8 8 8 7 7 6 6
15 14 13 11 10 9 8 8 8 8 8 9 9 7 7 7 7 7 7 7 7 7 7 8 8 8 7 7 6 6 5 5
15 14 12 11 10 8 8 8 7 8 8 8 7 7 7 7 7 6 7 6 7 6 7 7 7 7 7 6 5 4 4 3
15 14 12 11 9 8 7 7 7 7 7 7 7 7 7 6 7 7 7 6 6 6 7 7 6 6 5 4 3 3 3 3
15 14 12 10 9 8 7 7 7 7 7 6 7 7 7 6 6 6 6 6 6 6 6 6 6 5 4 4 3 3 3 3
15 14 12 10 9 8 7 6 6 7 6 6 6 7 6 6 6 6 6 6 5 5 4 5 5 5 5 4 3 2 2 2
15 14 13 11 9 8 7 6 6 5 5 6 6 6 6 6 6 6 6 5 5 4 4 5 5 5 4 4 2 2 1 1
15 14 13 11 10 8 7 6 6 5 5 5 6 5 5 5 5 5 4 3 3 3 4 4 5 4 4 3 4 1 -0 -0
16 14 13 11 10 8 7 6 5 5 4 4 4 4 4 4 4 4 3 3 3 3 3 4 4 4 4 3 2 2 -0 0
16 14 13 11 10 9 8 7 6 5 5 4 4 4 4 4 4 4 4 3 3 3 3 3 3 3 3 2 2 2 -0 0
16 15 13 12 10 9 8 7 6 5 5 4 4 3 4 4 4 4 3 3 3 3 2 3 3 2 2 2 2 1 -0 -1

GFSFLT1_850_temp_285.txt.gz
Temp
19 18 18 18 18 17 16 16 15 15 15 15 14 14 15 14 14 14 14 14 14 14 14 14 14 14 14 14 14 14 14 14
18 17 17 17 17 17 16 16 15 15 15 14 14 14 14 14 14 13 13 13 13 13 13 14 14 14 15 14 13 13 14 15
17 17 16 17 16 16 16 15 14 14 14 13 13 13 13 13 13 13 13 13 13 13 13 14 14 14 14 13 13 12 13 14
16 16 15 15 15 15 13 14 14 14 13 13 12 12 12 12 12 12 13 13 13 13 13 13 13 13 13 12 12 12 12 12
16 15 15 14 14 14 13 13 14 14 13 13 13 13 13 13 11 12 12 13 13 12 13 12 12 12 12 12 12 12 11 11
16 16 15 14 13 13 13 13 13 13 13 13 11 11 12 12 10 11 11 12 11 11 11 12 11 11 11 11 11 10 10 9
16 15 14 13 12 12 12 12 12 12 12 11 11 11 11 10 10 10 10 10 11 10 10 10 11 11 10 9 9 9 8 8
15 14 14 12 12 12 11 11 11 11 11 10 10 10 10 10 10 10 10 10 10 10 10 10 10 9 8 8 8 8 8 8
15 15 14 13 11 10 10 10 11 10 10 10 10 10 10 9 8 8 9 9 9 9 9 9 8 7 7 8 8 8 7 7
16 15 14 13 12 11 10 9 10 10 10 10 10 9 9 8 7 8 8 8 9 8 8 7 7 7 7 7 7 7 7 7
15 15 14 13 13 13 9 9 10 11 11 10 9 9 8 8 8 8 8 8 8 7 7 6 6 6 6 7 7 6 7 6
15 15 14 13 12 11 9 8 9 10 10 9 9 8 7 8 8 8 8 7 7 6 6 6 6 6 6 6 6 6 6 5
15 13 13 12 11 10 9 8 8 8 8 8 8 8 7 8 7 7 7 7 6 5 6 6 6 6 6 6 6 5 4 4
14 12 12 12 11 10 10 8 8 7 7 7 7 7 7 7 7 6 6 6 5 5 6 6 6 6 6 5 5 4 3 3
13 11 11 11 11 10 10 8 7 7 6 6 6 6 7 7 6 6 6 5 5 6 6 6 5 5 5 5 4 3 3 2
13 11 9 9 10 10 9 8 7 6 6 6 6 6 5 6 5 5 5 5 5 6 6 5 5 4 4 4 4 3 2 2
14 12 10 9 10 9 9 7 7 6 6 6 5 5 5 5 5 5 4 4 4 5 5 5 5 4 4 3 3 3 3 2
14 13 11 9 9 9 9 7 7 6 6 6 5 5 5 5 4 4 4 4 4 5 5 4 4 4 3 3 3 3 2 2
14 15 12 10 9 9 8 8 7 5 5 5 4 4 4 4 3 3 4 3 3 5 4 4 4 4 3 3 3 2 2 2

GFSFLT1_850_temp_288.txt.gz
Temp
19 18 17 17 16 16 16 16 16 16 15 15 15 15 15 15 15 15 15 15 15 15 15 14 14 15 15 15 15 15 15 14
18 18 18 17 16 16 16 16 15 15 15 15 14 14 14 14 14 14 14 14 14 14 14 14 14 14 15 15 15 14 14 12
17 18 17 17 17 16 16 16 15 15 15 15 14 14 14 13 14 13 13 13 13 13 14 14 14 14 14 14 14 14 13 11
16 16 16 16 16 16 16 15 15 15 14 13 13 12 13 13 13 13 12 12 12 13 14 14 13 13 13 14 13 13 13 12
16 16 16 16 16 16 16 15 14 13 13 13 13 14 13 13 13 12 12 12 12 13 13 13 13 13 13 13 12 12 12 13
17 17 17 17 17 16 15 14 12 13 12 12 13 13 12 12 13 12 12 12 12 12 12 12 12 12 12 12 12 12 12 13
18 19 17 17 17 15 15 14 13 12 12 12 12 12 13 12 12 12 11 12 12 11 11 11 11 11 11 11 11 12 11 11
17 17 16 16 16 15 14 13 12 12 12 11 12 12 13 12 12 12 12 11 11 10 10 10 10 10 10 10 10 10 9 9
15 16 16 15 15 15 14 13 12 11 11 11 11 11 11 11 11 11 11 10 10 9 10 9 10 10 9 9 9 9 8 8
16 16 16 15 15 15 15 14 11 11 10 10 10 10 10 10 10 10 10 9 9 9 9 9 9 9 8 7 8 8 7 7
16 16 17 16 16 15 14 14 12 10 10 10 10 9 9 10 11 10 8 9 9 8 9 8 8 8 7 7 7 6 6 5
14 15 14 15 14 13 13 12 11 10 9 9 9 9 9 10 9 8 8 8 8 7 8 8 7 7 6 6 6 5 6 5
14 13 12 13 13 13 12 11 11 10 9 9 8 8 8 8 7 7 7 7 7 7 7 6 6 6 5 5 5 5 5 5
14 12 11 13 13 12 11 11 10 10 9 8 8 8 8 7 7 7 7 7 7 6 6 6 6 5 4 4 5 5 5 4
13 11 10 10 9 11 11 10 10 10 9 8 8 7 7 7 7 6 6 6 7 6 5 5 5 4 4 4 4 4 4 4
13 11 9 8 9 10 10 11 10 9 9 8 8 7 7 7 6 6 6 5 5 5 5 4 4 4 4 4 4 4 4 4
11 9 9 9 10 10 11 11 10 8 7 7 7 7 6 6 5 5 4 4 4 4 4 4 4 4 4 4 4 4 3 3
11 11 10 11 12 13 11 11 9 8 7 7 6 6 6 5 5 4 3 4 4 4 4 4 4 4 4 4 3 3 3 2
9 11 15 14 12 10 11 11 10 9 7 6 6 6 5 5 4 3 3 3 4 4 4 3 4 4 3 3 3 2 2 2